Location: Axtheid
(49.6213°N, 11.8205°E)
Time: 13:43:20
(UTC+00:00)

USA 267 - Pass Details

Date: 24 January 2021
Orbit: 1102 x 1106 km, 123.0° (Epoch: 22 February)

Event Time Altitude Azimuth Distance (km) Brightness Sun altitude
Exits shadow 18:41:53 26° 158° (SSE) 2,000 4.4 -26.7°
Drops below altitude 10° 18:45:37 10° 189° (S) 2,954 5.6 -27.3°
Sets 18:48:26 0° 200° (SSW) 3,908 6.4 -27.8°
